Location: Newark
(45.6667°N, 9.8167°E)
Time: 07:40:48
(UTC+00:00)

ISS - Visible Passes

Search period start: 19 January 2020 00:00
Search period end: 29 January 2020 00:00
Orbit: 415 x 421 km, 51.6° (Epoch: 19 January)

Date Brightness Start Highest point End Pass type
(mag) Time Alt. Az. Time Alt. Az. Time Alt. Az.
19 Jan -1.3 18:11:34 10° S 18:12:27 15° S 18:12:27 15° S visible
20 Jan -1.6 17:24:38 10° SSE 17:26:23 14° SE 17:26:47 13° SE visible
20 Jan -0.6 18:59:20 10° WSW 18:59:44 13° WSW 18:59:44 13° WSW visible
21 Jan -2.9 18:11:26 10° SW 18:14:00 42° S 18:14:00 42° S visible
22 Jan -2.8 17:23:43 10° SSW 17:26:46 33° SE 17:28:10 23° E visible
22 Jan -0.8 19:00:11 10° W 19:01:07 17° W 19:01:07 17° W visible
23 Jan -3.5 18:12:01 10° WSW 18:15:12 67° NW 18:15:12 67° NW visible
24 Jan -3.8 17:23:57 10° WSW 17:27:18 81° SSE 17:29:14 23° ENE visible
24 Jan -0.8 19:01:15 10° WNW 19:02:10 16° WNW 19:02:10 16° WNW visible
25 Jan -2.8 18:12:57 10° W 18:16:09 39° NNW 18:16:09 39° NNW visible
26 Jan -3.2 17:24:41 10° W 17:27:59 50° NNW 17:30:04 20° NE visible
26 Jan -0.7 19:02:15 10° WNW 19:03:00 15° NW 19:03:00 15° NW visible
27 Jan -2.4 18:13:59 10° WNW 18:16:54 29° N 18:16:54 29° N visible
28 Jan -2.6 17:25:40 10° WNW 17:28:45 33° NNW 17:30:46 17° NE visible
28 Jan -0.8 19:03:03 10° NW 19:03:42 14° NW 19:03:42 14° NW visible
